| time (UTC) | temp F | wind direction | speed MPH | gust MPH | rain 1hr in | rain 24hr in | rain mn in | humidity % | barometer mb |
| 20260901192503 | 86 | 180 | 1.0 | 3.0 | 0.00 | 0.00 | 0.00 | 64 | 1010.9 |
| 20260901192003 | 87 | 180 | 0.0 | 2.0 | 0.00 | 0.00 | 0.00 | 63 | 1010.9 |
| 20260901191503 | 87 | 180 | 0.0 | 2.0 | 0.00 | 0.00 | 0.00 | 63 | 1010.7 |
| 20260901191003 | 86 | 180 | 0.0 | 1.0 | 0.00 | 0.00 | 0.00 | 62 | 1010.7 |
| 20260901190503 | 86 | 180 | 0.0 | 2.0 | 0.00 | 0.00 | 0.00 | 61 | 1010.6 |
| 20260901190003 | 86 | 180 | 0.0 | 1.0 | 0.00 | 0.00 | 0.00 | 61 | 1010.7 |
| 20260901185503 | 86 | 180 | 1.0 | 2.0 | 0.00 | 0.00 | 0.00 | 61 | 1010.6 |
| 20260901185003 | 87 | 180 | 1.0 | 3.0 | 0.00 | 0.00 | 0.00 | 61 | 1010.7 |
| 20260901184503 | 87 | 150 | 1.0 | 2.0 | 0.00 | 0.00 | 0.00 | 60 | 1010.6 |
| 20260901184003 | 87 | 67 | 0.0 | 1.0 | 0.00 | 0.00 | 0.00 | 58 | 1010.5 |
| 20260901183503 | 88 | 67 | 0.0 | 1.0 | 0.00 | 0.00 | 0.00 | 57 | 1010.5 |
| 20260901183003 | 87 | 67 | 0.0 | 2.0 | 0.00 | 0.00 | 0.00 | 52 | 1010.5 |
| 20260901182503 | 87 | 106 | 0.0 | 2.0 | 0.00 | 0.00 | 0.00 | 48 | 1010.3 |
| 20260901182003 | 87 | 108 | 1.0 | 2.0 | 0.00 | 0.00 | 0.00 | 48 | 1010.5 |
| 20260901181503 | 88 | 36 | 0.0 | 2.0 | 0.00 | 0.00 | 0.00 | 47 | 1010.3 |
| 20260901181003 | 88 | 22 | 0.0 | 1.0 | 0.00 | 0.00 | 0.00 | 47 | 1010.2 |
| 20260901180503 | 88 | 22 | 1.0 | 2.0 | 0.00 | 0.00 | 0.00 | 46 | 1010.1 |
| 20260901180003 | 88 | 21 | 2.0 | 3.0 | 0.00 | 0.00 | 0.00 | 46 | 1010.1 |
| 20260901175503 | 88 | 353 | 3.0 | 4.0 | 0.00 | 0.00 | 0.00 | 46 | 1010.2 |
| 20260901175003 | 89 | 350 | 3.0 | 4.0 | 0.00 | 0.00 | 0.00 | 46 | 1010.0 |
| 20260901174503 | 89 | 311 | 2.0 | 4.0 | 0.00 | 0.00 | 0.00 | 46 | 1010.1 |
| 20260901174003 | 89 | 352 | 2.0 | 4.0 | 0.00 | 0.00 | 0.00 | 46 | 1009.8 |
| 20260901173503 | 89 | 5 | 3.0 | 6.0 | 0.00 | 0.00 | 0.00 | 46 | 1009.7 |
| 20260901173003 | 89 | 8 | 3.0 | 6.0 | 0.00 | 0.00 | 0.00 | 46 | 1009.5 |
| 20260901172503 | 89 | 7 | 4.0 | 8.0 | 0.00 | 0.00 | 0.00 | 46 | 1009.5 |
| 20260901172003 | 89 | 12 | 4.0 | 9.0 | 0.00 | 0.00 | 0.00 | 46 | 1009.4 |
| 20260901171503 | 90 | 11 | 5.0 | 10.0 | 0.00 | 0.00 | 0.00 | 46 | 1009.3 |
| 20260901171003 | 90 | 15 | 7.0 | 13.0 | 0.00 | 0.00 | 0.00 | 47 | 1009.2 |
| 20260901170503 | 90 | 9 | 7.0 | 13.0 | 0.00 | 0.00 | 0.00 | 48 | 1009.2 |
| 20260901170003 | 91 | 9 | 5.0 | 9.0 | 0.00 | 0.00 | 0.00 | 49 | 1009.5 |
| 20260901165503 | 91 | 7 | 6.0 | 10.0 | 0.00 | 0.00 | 0.00 | 49 | 1009.4 |
| 20260901165004 | 91 | 3 | 6.0 | 11.0 | 0.00 | 0.00 | 0.00 | 49 | 1009.4 |
| 20260901164503 | 92 | 8 | 5.0 | 10.0 | 0.00 | 0.00 | 0.00 | 50 | 1009.1 |
| 20260901164003 | 92 | 2 | 6.0 | 9.0 | 0.00 | 0.00 | 0.00 | 50 | 1009.0 |
| 20260901163503 | 92 | 10 | 6.0 | 12.0 | 0.00 | 0.00 | 0.00 | 48 | 1009.0 |
| 20260901163003 | 92 | 17 | 8.0 | 14.0 | 0.00 | 0.00 | 0.00 | 49 | 1009.1 |
| 20260901162503 | 93 | 22 | 7.0 | 12.0 | 0.00 | 0.00 | 0.00 | 49 | 1009.1 |
| 20260901162003 | 93 | 24 | 6.0 | 9.0 | 0.00 | 0.00 | 0.00 | 48 | 1009.2 |
| 20260901161503 | 94 | 19 | 5.0 | 8.0 | 0.00 | 0.00 | 0.00 | 48 | 1009.1 |
| 20260901161003 | 94 | 16 | 7.0 | 11.0 | 0.00 | 0.00 | 0.00 | 47 | 1009.1 |
| 20260901160503 | 95 | 21 | 7.0 | 9.0 | 0.00 | 0.00 | 0.00 | 47 | 1009.3 |
| 20260901160003 | 95 | 11 | 5.0 | 10.0 | 0.00 | 0.00 | 0.00 | 47 | 1009.2 |
| 20260901155503 | 95 | 14 | 5.0 | 9.0 | 0.00 | 0.00 | 0.00 | 48 | 1009.2 |
| 20260901155003 | 95 | 11 | 8.0 | 13.0 | 0.00 | 0.00 | 0.00 | 48 | 1009.1 |
| 20260901154503 | 95 | 20 | 8.0 | 14.0 | 0.00 | 0.00 | 0.00 | 47 | 1009.1 |
| 20260901154003 | 95 | 27 | 7.0 | 15.0 | 0.00 | 0.00 | 0.00 | 47 | 1009.2 |
| 20260901153504 | 95 | 22 | 7.0 | 11.0 | 0.00 | 0.00 | 0.00 | 48 | 1009.3 |
| 20260901153003 | 95 | 22 | 7.0 | 12.0 | 0.00 | 0.00 | 0.00 | 48 | 1009.1 |
| 20260901152503 | 95 | 22 | 5.0 | 10.0 | 0.00 | 0.00 | 0.00 | 47 | 1009.3 |
| 20260901152003 | 96 | 26 | 6.0 | 12.0 | 0.00 | 0.00 | 0.00 | 47 | 1009.1 |
| 20260901151503 | 96 | 15 | 5.0 | 11.0 | 0.00 | 0.00 | 0.00 | 47 | 1009.1 |
| 20260901151003 | 96 | 10 | 8.0 | 12.0 | 0.00 | 0.00 | 0.00 | 47 | 1009.0 |
| 20260901150503 | 95 | 18 | 5.0 | 10.0 | 0.00 | 0.00 | 0.00 | 48 | 1009.0 |
| 20260901150003 | 95 | 29 | 6.0 | 10.0 | 0.00 | 0.00 | 0.00 | 48 | 1009.0 |
| 20260901145503 | 95 | 20 | 6.0 | 11.0 | 0.00 | 0.00 | 0.00 | 48 | 1009.0 |
| 20260901145003 | 96 | 33 | 7.0 | 12.0 | 0.00 | 0.00 | 0.00 | 48 | 1008.9 |
| 20260901144503 | 97 | 34 | 7.0 | 12.0 | 0.00 | 0.00 | 0.00 | 47 | 1009.1 |
| 20260901144003 | 97 | 13 | 10.0 | 16.0 | 0.00 | 0.00 | 0.00 | 47 | 1009.1 |
| 20260901143503 | 97 | 12 | 8.0 | 13.0 | 0.00 | 0.00 | 0.00 | 47 | 1009.1 |
| 20260901143003 | 97 | 17 | 8.0 | 13.0 | 0.00 | 0.00 | 0.00 | 47 | 1009.3 |
| 20260901142503 | 97 | 10 | 7.0 | 12.0 | 0.00 | 0.00 | 0.00 | 48 | 1009.1 |
| 20260901142003 | 97 | 25 | 10.0 | 18.0 | 0.00 | 0.00 | 0.00 | 48 | 1009.0 |
| 20260901141503 | 98 | 22 | 9.0 | 13.0 | 0.00 | 0.00 | 0.00 | 48 | 1009.1 |
| 20260901141003 | 98 | 19 | 6.0 | 11.0 | 0.00 | 0.00 | 0.00 | 48 | 1009.0 |
| 20260901140503 | 98 | 20 | 8.0 | 14.0 | 0.00 | 0.00 | 0.00 | 48 | 1009.2 |
| 20260901140003 | 98 | 22 | 10.0 | 15.0 | 0.00 | 0.00 | 0.00 | 47 | 1009.2 |
| 20260901135503 | 98 | 25 | 6.0 | 12.0 | 0.00 | 0.00 | 0.00 | 48 | 1009.2 |
| 20260901135003 | 98 | 21 | 9.0 | 16.0 | 0.00 | 0.00 | 0.00 | 48 | 1009.3 |
| 20260901134503 | 98 | 8 | 7.0 | 10.0 | 0.00 | 0.00 | 0.00 | 48 | 1009.1 |
| 20260901134003 | 98 | 7 | 8.0 | 14.0 | 0.00 | 0.00 | 0.00 | 49 | 1009.1 |
| 20260901133503 | 97 | 4 | 8.0 | 14.0 | 0.00 | 0.00 | 0.00 | 50 | 1009.3 |
| 20260901133003 | 96 | 21 | 8.0 | 14.0 | 0.00 | 0.00 | 0.00 | 51 | 1009.3 |
| 20260901132503 | 95 | 11 | 8.0 | 14.0 | 0.00 | 0.00 | 0.00 | 52 | 1009.4 |
| 20260901132003 | 95 | 352 | 7.0 | 12.0 | 0.00 | 0.00 | 0.00 | 51 | 1009.4 |
| 20260901131503 | 95 | 14 | 7.0 | 15.0 | 0.00 | 0.00 | 0.00 | 52 | 1009.4 |
| 20260901131003 | 95 | 1 | 3.0 | 12.0 | 0.00 | 0.00 | 0.00 | 53 | 1009.3 |
| 20260901130503 | 94 | 244 | 2.0 | 6.0 | 0.00 | 0.00 | 0.00 | 56 | 1009.4 |
| 20260901130003 | 93 | 176 | 3.0 | 7.0 | 0.00 | 0.00 | 0.00 | 58 | 1009.4 |
| 20260901125503 | 92 | 199 | 3.0 | 9.0 | 0.00 | 0.00 | 0.00 | 58 | 1009.3 |
| 20260901125003 | 92 | 199 | 3.0 | 7.0 | 0.00 | 0.00 | 0.00 | 59 | 1009.3 |
| 20260901124503 | 92 | 212 | 5.0 | 8.0 | 0.00 | 0.00 | 0.00 | 59 | 1009.4 |
| 20260901124003 | 92 | 212 | 5.0 | 11.0 | 0.00 | 0.00 | 0.00 | 58 | 1009.4 |
| 20260901123503 | 92 | 193 | 4.0 | 7.0 | 0.00 | 0.00 | 0.00 | 60 | 1009.5 |
| 20260901123003 | 91 | 192 | 5.0 | 9.0 | 0.00 | 0.00 | 0.00 | 60 | 1009.4 |
| 20260901122503 | 92 | 198 | 6.0 | 12.0 | 0.00 | 0.00 | 0.00 | 58 | 1009.4 |
| 20260901122003 | 94 | 197 | 4.0 | 9.0 | 0.00 | 0.00 | 0.00 | 57 | 1009.4 |
| 20260901121503 | 93 | 194 | 4.0 | 9.0 | 0.00 | 0.00 | 0.00 | 59 | 1009.5 |
| 20260901121003 | 92 | 210 | 5.0 | 9.0 | 0.00 | 0.00 | 0.00 | 60 | 1009.5 |
| 20260901120503 | 92 | 212 | 5.0 | 11.0 | 0.00 | 0.00 | 0.00 | 59 | 1009.5 |
| 20260901120003 | 91 | 198 | 6.0 | 13.0 | 0.00 | 0.00 | 0.00 | 62 | 1009.6 |
| 20260901115503 | 90 | 204 | 7.0 | 16.0 | 0.00 | 0.00 | 0.00 | 62 | 1009.6 |
| 20260901115003 | 90 | 199 | 7.0 | 13.0 | 0.00 | 0.00 | 0.00 | 62 | 1009.6 |
| 20260901114503 | 91 | 198 | 8.0 | 13.0 | 0.00 | 0.00 | 0.00 | 61 | 1009.6 |
| 20260901114003 | 91 | 197 | 6.0 | 11.0 | 0.00 | 0.00 | 0.00 | 60 | 1009.5 |
| 20260901113503 | 91 | 210 | 6.0 | 12.0 | 0.00 | 0.00 | 0.00 | 59 | 1009.5 |
| 20260901113003 | 91 | 218 | 6.0 | 11.0 | 0.00 | 0.00 | 0.00 | 59 | 1009.5 |
| 20260901112503 | 91 | 215 | 5.0 | 11.0 | 0.00 | 0.00 | 0.00 | 59 | 1009.6 |
| 20260901112003 | 90 | 212 | 6.0 | 11.0 | 0.00 | 0.00 | 0.00 | 60 | 1009.6 |
| 20260901111503 | 90 | 218 | 8.0 | 13.0 | 0.00 | 0.00 | 0.00 | 59 | 1009.5 |
| 20260901111003 | 91 | 220 | 5.0 | 11.0 | 0.00 | 0.00 | 0.00 | 58 | 1009.6 |
| 20260901110503 | 90 | 228 | 6.0 | 13.0 | 0.00 | 0.00 | 0.00 | 59 | 1009.6 |
| 20260901110003 | 90 | 205 | 6.0 | 12.0 | 0.00 | 0.00 | 0.00 | 59 | 1009.6 |
| 20260901105503 | 90 | 220 | 6.0 | 11.0 | 0.00 | 0.00 | 0.00 | 59 | 1009.7 |
| 20260901105003 | 89 | 233 | 6.0 | 11.0 | 0.00 | 0.00 | 0.00 | 60 | 1009.7 |
| 20260901104503 | 89 | 212 | 6.0 | 11.0 | 0.00 | 0.00 | 0.00 | 61 | 1009.8 |
| 20260901104003 | 89 | 216 | 5.0 | 10.0 | 0.00 | 0.00 | 0.00 | 62 | 1009.9 |
| 20260901103503 | 88 | 218 | 7.0 | 12.0 | 0.00 | 0.00 | 0.00 | 62 | 1009.8 |
| 20260901103003 | 89 | 207 | 7.0 | 12.0 | 0.00 | 0.00 | 0.00 | 61 | 1010.0 |
| 20260901102503 | 89 | 218 | 5.0 | 11.0 | 0.00 | 0.00 | 0.00 | 61 | 1010.0 |
| 20260901102003 | 90 | 214 | 7.0 | 12.0 | 0.00 | 0.00 | 0.00 | 60 | 1010.0 |
| 20260901101503 | 91 | 220 | 5.0 | 12.0 | 0.00 | 0.00 | 0.00 | 58 | 1010.0 |
| 20260901101003 | 90 | 227 | 4.0 | 8.0 | 0.00 | 0.00 | 0.00 | 58 | 1009.9 |
| 20260901100503 | 90 | 238 | 4.0 | 10.0 | 0.00 | 0.00 | 0.00 | 60 | 1009.9 |
| 20260901100003 | 90 | 218 | 5.0 | 8.0 | 0.00 | 0.00 | 0.00 | 61 | 1010.1 |
| 20260901095503 | 89 | 225 | 5.0 | 10.0 | 0.00 | 0.00 | 0.00 | 62 | 1010.2 |
| 20260901095003 | 89 | 212 | 6.0 | 11.0 | 0.00 | 0.00 | 0.00 | 62 | 1010.2 |
| 20260901094503 | 89 | 213 | 6.0 | 12.0 | 0.00 | 0.00 | 0.00 | 62 | 1010.3 |
| 20260901094003 | 89 | 227 | 5.0 | 11.0 | 0.00 | 0.00 | 0.00 | 61 | 1010.3 |
| 20260901093503 | 89 | 222 | 6.0 | 13.0 | 0.00 | 0.00 | 0.00 | 61 | 1010.2 |
| 20260901093003 | 89 | 219 | 4.0 | 9.0 | 0.00 | 0.00 | 0.00 | 61 | 1010.2 |
| 20260901092503 | 89 | 244 | 4.0 | 7.0 | 0.00 | 0.00 | 0.00 | 61 | 1010.3 |
| 20260901092003 | 89 | 234 | 4.0 | 9.0 | 0.00 | 0.00 | 0.00 | 62 | 1010.3 |
| 20260901091503 | 89 | 216 | 4.0 | 8.0 | 0.00 | 0.00 | 0.00 | 62 | 1010.3 |
| 20260901091003 | 89 | 229 | 4.0 | 10.0 | 0.00 | 0.00 | 0.00 | 62 | 1010.2 |
| 20260901090503 | 88 | 229 | 4.0 | 9.0 | 0.00 | 0.00 | 0.00 | 63 | 1010.4 |
| 20260901090003 | 88 | 232 | 4.0 | 9.0 | 0.00 | 0.00 | 0.00 | 63 | 1010.3 |
| 20260901085503 | 87 | 216 | 5.0 | 12.0 | 0.00 | 0.00 | 0.00 | 63 | 1010.4 |
| 20260901085003 | 87 | 232 | 4.0 | 7.0 | 0.00 | 0.00 | 0.00 | 63 | 1010.3 |
| 20260901084503 | 87 | 223 | 6.0 | 12.0 | 0.00 | 0.00 | 0.00 | 63 | 1010.3 |
| 20260901084003 | 87 | 216 | 5.0 | 12.0 | 0.00 | 0.00 | 0.00 | 63 | 1010.3 |
| 20260901083503 | 86 | 217 | 6.0 | 14.0 | 0.00 | 0.00 | 0.00 | 64 | 1010.2 |
| 20260901083003 | 86 | 214 | 7.0 | 13.0 | 0.00 | 0.00 | 0.00 | 64 | 1010.2 |
| 20260901082503 | 87 | 223 | 5.0 | 11.0 | 0.00 | 0.00 | 0.00 | 63 | 1010.2 |
| 20260901082003 | 87 | 218 | 4.0 | 10.0 | 0.00 | 0.00 | 0.00 | 64 | 1010.1 |
| 20260901081503 | 86 | 228 | 4.0 | 9.0 | 0.00 | 0.00 | 0.00 | 64 | 1010.3 |
| 20260901081004 | 86 | 219 | 5.0 | 12.0 | 0.00 | 0.00 | 0.00 | 64 | 1010.3 |
| 20260901080503 | 86 | 229 | 6.0 | 12.0 | 0.00 | 0.00 | 0.00 | 64 | 1010.2 |
| 20260901080005 | 86 | 234 | 3.0 | 9.0 | 0.00 | 0.00 | 0.00 | 64 | 1010.2 |
| 20260901075503 | 86 | 256 | 4.0 | 9.0 | 0.00 | 0.00 | 0.00 | 64 | 1010.2 |
| 20260901075003 | 86 | 244 | 4.0 | 9.0 | 0.00 | 0.00 | 0.00 | 65 | 1010.2 |
| 20260901074503 | 86 | 238 | 4.0 | 8.0 | 0.00 | 0.00 | 0.00 | 64 | 1010.2 |
| 20260901074003 | 87 | 265 | 3.0 | 5.0 | 0.00 | 0.00 | 0.00 | 64 | 1010.2 |
| 20260901073503 | 87 | 286 | 2.0 | 5.0 | 0.00 | 0.00 | 0.00 | 64 | 1010.1 |
| 20260901073003 | 87 | 342 | 2.0 | 6.0 | 0.00 | 0.00 | 0.00 | 64 | 1009.9 |
| 20260901072503 | 86 | 270 | 1.0 | 3.0 | 0.00 | 0.00 | 0.00 | 64 | 1010.0 |
| 20260901072003 | 86 | 323 | 2.0 | 5.0 | 0.00 | 0.00 | 0.00 | 65 | 1010.0 |
| 20260901071503 | 85 | 272 | 1.0 | 3.0 | 0.00 | 0.00 | 0.00 | 65 | 1010.0 |
| 20260901071003 | 84 | 316 | 3.0 | 6.0 | 0.00 | 0.00 | 0.00 | 66 | 1010.0 |
| 20260901070503 | 84 | 249 | 4.0 | 9.0 | 0.00 | 0.00 | 0.00 | 65 | 1009.9 |
| 20260901070003 | 84 | 246 | 3.0 | 7.0 | 0.00 | 0.00 | 0.00 | 66 | 1009.9 |
| 20260901065503 | 84 | 238 | 4.0 | 8.0 | 0.00 | 0.00 | 0.00 | 66 | 1009.9 |
| 20260901065003 | 84 | 237 | 2.0 | 6.0 | 0.00 | 0.00 | 0.00 | 66 | 1009.9 |
| 20260901064503 | 83 | 239 | 3.0 | 9.0 | 0.00 | 0.00 | 0.00 | 66 | 1010.0 |
| 20260901064003 | 83 | 221 | 3.0 | 6.0 | 0.00 | 0.00 | 0.00 | 66 | 1010.0 |
| 20260901063503 | 83 | 232 | 4.0 | 8.0 | 0.00 | 0.00 | 0.00 | 66 | 1010.2 |
| 20260901063003 | 84 | 265 | 2.0 | 6.0 | 0.00 | 0.00 | 0.00 | 66 | 1010.1 |
| 20260901062503 | 83 | 248 | 2.0 | 5.0 | 0.00 | 0.00 | 0.00 | 66 | 1010.1 |
| 20260901062003 | 83 | 223 | 2.0 | 6.0 | 0.00 | 0.00 | 0.00 | 66 | 1010.0 |
| 20260901061503 | 83 | 230 | 3.0 | 8.0 | 0.00 | 0.00 | 0.00 | 66 | 1010.0 |
| 20260901061003 | 83 | 239 | 1.0 | 6.0 | 0.00 | 0.00 | 0.00 | 66 | 1010.0 |
| 20260901060503 | 83 | 271 | 1.0 | 4.0 | 0.00 | 0.00 | 0.00 | 66 | 1010.0 |
| 20260901060003 | 83 | 263 | 2.0 | 4.0 | 0.00 | 0.00 | 0.00 | 66 | 1009.9 |
| 20260901055503 | 83 | 314 | 1.0 | 4.0 | 0.00 | 0.00 | 0.00 | 66 | 1010.0 |
| 20260901055003 | 82 | 324 | 2.0 | 4.0 | 0.00 | 0.00 | 0.00 | 66 | 1010.0 |
| 20260901054503 | 82 | 346 | 2.0 | 4.0 | 0.00 | 0.00 | 0.00 | 66 | 1010.0 |
| 20260901054003 | 82 | 343 | 2.0 | 4.0 | 0.00 | 0.00 | 0.00 | 67 | 1009.9 |
| 20260901053503 | 81 | 311 | 1.0 | 3.0 | 0.00 | 0.00 | 0.00 | 67 | 1009.9 |
| 20260901053003 | 81 | 309 | 1.0 | 3.0 | 0.00 | 0.00 | 0.00 | 67 | 1010.0 |
| 20260901052503 | 80 | 360 | 0.0 | 2.0 | 0.00 | 0.00 | 0.00 | 67 | 1009.9 |
| 20260901052004 | 80 | 7 | 2.0 | 4.0 | 0.00 | 0.00 | 0.00 | 67 | 1009.9 |
| 20260901051503 | 80 | 21 | 2.0 | 4.0 | 0.00 | 0.00 | 0.00 | 67 | 1009.9 |
| 20260901051003 | 79 | 22 | 2.0 | 3.0 | 0.00 | 0.00 | 0.00 | 67 | 1009.9 |
| 20260901050503 | 79 | 14 | 2.0 | 4.0 | 0.00 | 0.00 | 0.00 | 67 | 1009.8 |
| 20260901050003 | 79 | 360 | 1.0 | 3.0 | 0.00 | 0.00 | 0.00 | 67 | 1009.7 |
| 20260901045503 | 79 | 360 | 2.0 | 3.0 | 0.00 | 0.00 | 0.00 | 67 | 1009.6 |
| 20260901045003 | 78 | 360 | 1.0 | 2.0 | 0.00 | 0.00 | 0.00 | 67 | 1009.8 |
| 20260901044505 | 78 | 360 | 0.0 | 2.0 | 0.00 | 0.00 | 0.00 | 67 | 1009.7 |
| 20260901044003 | 78 | 0 | 0.0 | 0.0 | 0.00 | 0.00 | 0.00 | 67 | 1009.6 |
| 20260901043503 | 78 | 0 | 0.0 | 0.0 | 0.00 | 0.00 | 0.00 | 67 | 1009.7 |
| 20260901043003 | 78 | 360 | 1.0 | 2.0 | 0.00 | 0.00 | 0.00 | 67 | 1009.6 |
| 20260901042503 | 78 | 360 | 1.0 | 2.0 | 0.00 | 0.00 | 0.00 | 67 | 1009.7 |
| 20260901042003 | 78 | 360 | 1.0 | 2.0 | 0.00 | 0.00 | 0.00 | 67 | 1009.7 |
| 20260901041503 | 78 | 360 | 1.0 | 2.0 | 0.00 | 0.00 | 0.00 | 67 | 1009.7 |
| 20260901041003 | 78 | 8 | 2.0 | 4.0 | 0.00 | 0.00 | 0.00 | 67 | 1009.7 |
| 20260901040503 | 78 | 8 | 2.0 | 3.0 | 0.00 | 0.00 | 0.00 | 67 | 1009.7 |
| 20260901040003 | 78 | 19 | 1.0 | 3.0 | 0.00 | 0.00 | 0.00 | 67 | 1009.6 |
| 20260901035503 | 78 | 4 | 1.0 | 2.0 | 0.00 | 0.00 | 0.00 | 67 | 1009.6 |
| 20260901035003 | 78 | 20 | 1.0 | 2.0 | 0.00 | 0.00 | 0.00 | 67 | 1009.5 |
| 20260901034503 | 79 | 18 | 1.0 | 2.0 | 0.00 | 0.00 | 0.00 | 67 | 1009.5 |
| 20260901034003 | 79 | 19 | 2.0 | 3.0 | 0.00 | 0.00 | 0.00 | 67 | 1009.5 |
| 20260901033503 | 79 | 22 | 2.0 | 4.0 | 0.00 | 0.00 | 0.00 | 67 | 1009.5 |
| 20260901033003 | 79 | 24 | 2.0 | 4.0 | 0.00 | 0.00 | 0.00 | 67 | 1009.5 |
| 20260901032503 | 79 | 23 | 3.0 | 4.0 | 0.00 | 0.00 | 0.00 | 67 | 1009.4 |
| 20260901032003 | 79 | 11 | 2.0 | 4.0 | 0.00 | 0.00 | 0.00 | 67 | 1009.4 |
| 20260901031503 | 79 | 337 | 2.0 | 2.0 | 0.00 | 0.00 | 0.00 | 67 | 1009.4 |
| 20260901031003 | 79 | 337 | 0.0 | 2.0 | 0.00 | 0.00 | 0.00 | 67 | 1009.5 |
| 20260901030503 | 79 | 337 | 1.0 | 2.0 | 0.00 | 0.00 | 0.00 | 67 | 1009.4 |
| 20260901030003 | 79 | 337 | 0.0 | 1.0 | 0.00 | 0.00 | 0.00 | 67 | 1009.4 |
| 20260901025503 | 79 | 337 | 0.0 | 1.0 | 0.00 | 0.00 | 0.00 | 67 | 1009.4 |
| 20260901025003 | 79 | 337 | 0.0 | 1.0 | 0.00 | 0.00 | 0.00 | 67 | 1009.3 |
| 20260901024503 | 79 | 337 | 1.0 | 2.0 | 0.00 | 0.00 | 0.00 | 67 | 1009.3 |
| 20260901024003 | 79 | 337 | 1.0 | 3.0 | 0.00 | 0.00 | 0.00 | 67 | 1009.1 |
| 20260901023503 | 79 | 337 | 2.0 | 3.0 | 0.00 | 0.00 | 0.00 | 67 | 1009.1 |
| 20260901023003 | 79 | 337 | 2.0 | 4.0 | 0.00 | 0.00 | 0.00 | 67 | 1009.0 |
| 20260901022503 | 79 | 326 | 1.0 | 3.0 | 0.00 | 0.00 | 0.00 | 67 | 1009.3 |
| 20260901022003 | 79 | 315 | 1.0 | 3.0 | 0.00 | 0.00 | 0.00 | 67 | 1009.3 |
| 20260901021503 | 79 | 330 | 1.0 | 2.0 | 0.00 | 0.00 | 0.00 | 67 | 1009.3 |
| 20260901021003 | 79 | 7 | 1.0 | 2.0 | 0.00 | 0.00 | 0.00 | 67 | 1009.2 |
| 20260901020503 | 79 | 16 | 0.0 | 2.0 | 0.00 | 0.00 | 0.00 | 67 | 1009.3 |
| 20260901020003 | 79 | 29 | 1.0 | 3.0 | 0.00 | 0.00 | 0.00 | 67 | 1009.3 |
| 20260901015503 | 79 | 13 | 2.0 | 4.0 | 0.00 | 0.00 | 0.00 | 67 | 1009.2 |
| 20260901015003 | 79 | 12 | 2.0 | 4.0 | 0.00 | 0.00 | 0.00 | 67 | 1009.1 |
| 20260901014503 | 79 | 11 | 3.0 | 5.0 | 0.00 | 0.00 | 0.00 | 67 | 1009.1 |
| 20260901014003 | 79 | 13 | 3.0 | 4.0 | 0.00 | 0.00 | 0.00 | 67 | 1009.1 |
| 20260901013503 | 79 | 14 | 2.0 | 4.0 | 0.00 | 0.00 | 0.00 | 67 | 1009.2 |
| 20260901013004 | 79 | 24 | 2.0 | 4.0 | 0.00 | 0.00 | 0.00 | 67 | 1009.1 |
| 20260901012503 | 79 | 17 | 2.0 | 4.0 | 0.00 | 0.00 | 0.00 | 67 | 1009.1 |
| 20260901012003 | 79 | 23 | 2.0 | 4.0 | 0.00 | 0.00 | 0.00 | 67 | 1009.1 |
| 20260901011504 | 79 | 19 | 2.0 | 4.0 | 0.00 | 0.00 | 0.00 | 67 | 1009.2 |
| 20260901011004 | 79 | 12 | 3.0 | 4.0 | 0.00 | 0.00 | 0.00 | 67 | 1009.1 |
| 20260901010503 | 79 | 9 | 3.0 | 4.0 | 0.00 | 0.00 | 0.00 | 67 | 1009.1 |
| 20260901010003 | 79 | 12 | 4.0 | 5.0 | 0.00 | 0.00 | 0.00 | 67 | 1009.0 |
| 20260901005503 | 80 | 14 | 3.0 | 6.0 | 0.00 | 0.00 | 0.00 | 67 | 1009.2 |
| 20260901005003 | 80 | 15 | 3.0 | 4.0 | 0.00 | 0.00 | 0.00 | 67 | 1009.1 |
| 20260901004503 | 80 | 17 | 3.0 | 4.0 | 0.00 | 0.00 | 0.00 | 67 | 1009.1 |
| 20260901004003 | 80 | 12 | 2.0 | 5.0 | 0.00 | 0.00 | 0.00 | 67 | 1009.2 |
| 20260901003503 | 80 | 12 | 3.0 | 4.0 | 0.00 | 0.00 | 0.00 | 67 | 1009.1 |
| 20260901003003 | 80 | 9 | 2.0 | 4.0 | 0.00 | 0.00 | 0.00 | 67 | 1009.0 |
| 20260901002503 | 80 | 17 | 3.0 | 5.0 | 0.00 | 0.00 | 0.00 | 67 | 1009.0 |
| 20260901002003 | 80 | 15 | 3.0 | 5.0 | 0.00 | 0.00 | 0.00 | 67 | 1009.0 |
| 20260901001503 | 80 | 18 | 3.0 | 5.0 | 0.00 | 0.00 | 0.00 | 67 | 1009.0 |
| 20260901001003 | 80 | 22 | 3.0 | 4.0 | 0.00 | 0.00 | 0.00 | 67 | 1009.0 |
| 20260901000503 | 80 | 18 | 2.0 | 4.0 | 0.00 | 0.00 | 0.00 | 67 | 1009.1 |
| 20260901000003 | 80 | 20 | 2.0 | 4.0 | 0.00 | 0.00 | 0.00 | 67 | 1009.0 |
| 20260831235503 | 81 | 27 | 3.0 | 4.0 | 0.00 | 0.00 | 0.00 | 68 | 1009.0 |
| 20260831235003 | 81 | 27 | 3.0 | 5.0 | 0.00 | 0.00 | 0.00 | 67 | 1009.0 |
| 20260831234503 | 81 | 25 | 2.0 | 4.0 | 0.00 | 0.00 | 0.00 | 68 | 1009.1 |
| 20260831234003 | 81 | 26 | 2.0 | 3.0 | 0.00 | 0.00 | 0.00 | 67 | 1009.1 |
| 20260831233503 | 81 | 28 | 2.0 | 4.0 | 0.00 | 0.00 | 0.00 | 67 | 1009.0 |
| 20260831233003 | 82 | 20 | 2.0 | 4.0 | 0.00 | 0.00 | 0.00 | 67 | 1009.0 |
| 20260831232503 | 82 | 20 | 3.0 | 4.0 | 0.00 | 0.00 | 0.00 | 67 | 1009.0 |
| 20260831232003 | 82 | 21 | 3.0 | 4.0 | 0.00 | 0.00 | 0.00 | 67 | 1009.0 |
| 20260831231503 | 82 | 10 | 2.0 | 3.0 | 0.00 | 0.00 | 0.00 | 67 | 1009.1 |
| 20260831231003 | 82 | 30 | 2.0 | 4.0 | 0.00 | 0.00 | 0.00 | 67 | 1009.0 |
| 20260831230503 | 82 | 67 | 0.0 | 2.0 | 0.00 | 0.00 | 0.00 | 67 | 1009.0 |
| 20260831230003 | 82 | 67 | 0.0 | 2.0 | 0.00 | 0.00 | 0.00 | 67 | 1008.9 |
| 20260831225503 | 82 | 67 | 1.0 | 2.0 | 0.00 | 0.00 | 0.00 | 67 | 1009.0 |
| 20260831225003 | 82 | 67 | 1.0 | 2.0 | 0.00 | 0.00 | 0.00 | 67 | 1009.0 |
| 20260831224503 | 82 | 69 | 0.0 | 2.0 | 0.00 | 0.00 | 0.00 | 67 | 1009.0 |
| 20260831224003 | 82 | 90 | 0.0 | 2.0 | 0.00 | 0.00 | 0.00 | 67 | 1009.0 |
| 20260831223503 | 82 | 80 | 0.0 | 1.0 | 0.00 | 0.00 | 0.00 | 67 | 1008.9 |
| 20260831223003 | 82 | 68 | 1.0 | 2.0 | 0.00 | 0.00 | 0.00 | 67 | 1008.9 |
| 20260831222503 | 82 | 65 | 1.0 | 3.0 | 0.00 | 0.00 | 0.00 | 67 | 1008.9 |
| 20260831222003 | 83 | 65 | 1.0 | 3.0 | 0.00 | 0.00 | 0.00 | 67 | 1008.8 |
| 20260831221503 | 83 | 59 | 1.0 | 3.0 | 0.00 | 0.00 | 0.00 | 66 | 1008.9 |
| 20260831221003 | 83 | 49 | 1.0 | 3.0 | 0.00 | 0.00 | 0.00 | 66 | 1008.7 |
| 20260831220503 | 83 | 62 | 1.0 | 4.0 | 0.00 | 0.00 | 0.00 | 66 | 1009.0 |
| 20260831220003 | 83 | 68 | 1.0 | 3.0 | 0.00 | 0.00 | 0.00 | 66 | 1008.9 |
| 20260831215503 | 83 | 74 | 3.0 | 6.0 | 0.00 | 0.00 | 0.00 | 66 | 1008.7 |
| 20260831215003 | 84 | 66 | 1.0 | 4.0 | 0.00 | 0.00 | 0.00 | 65 | 1008.9 |
| 20260831214503 | 84 | 79 | 1.0 | 3.0 | 0.00 | 0.00 | 0.00 | 65 | 1008.9 |
| 20260831214003 | 84 | 85 | 0.0 | 2.0 | 0.00 | 0.00 | 0.00 | 65 | 1008.8 |
| 20260831213503 | 85 | 55 | 0.0 | 1.0 | 0.00 | 0.00 | 0.00 | 65 | 1008.9 |
| 20260831213003 | 85 | 0 | 0.0 | 0.0 | 0.00 | 0.00 | 0.00 | 65 | 1008.7 |
| 20260831212503 | 85 | 0 | 0.0 | 0.0 | 0.00 | 0.00 | 0.00 | 65 | 1008.7 |
| 20260831212003 | 85 | 0 | 0.0 | 0.0 | 0.00 | 0.00 | 0.00 | 65 | 1008.7 |
| 20260831211503 | 84 | 67 | 0.0 | 1.0 | 0.00 | 0.00 | 0.00 | 65 | 1008.7 |
| 20260831211004 | 85 | 45 | 0.0 | 1.0 | 0.00 | 0.00 | 0.00 | 65 | 1008.6 |
| 20260831210503 | 85 | 0 | 0.0 | 0.0 | 0.00 | 0.00 | 0.00 | 65 | 1008.6 |
| 20260831210008 | 85 | 0 | 0.0 | 0.0 | 0.00 | 0.00 | 0.00 | 65 | 1008.5 |
| 20260831205503 | 85 | 0 | 0.0 | 0.0 | 0.00 | 0.00 | 0.00 | 65 | 1008.6 |
| 20260831205003 | 85 | 0 | 0.0 | 0.0 | 0.00 | 0.00 | 0.00 | 65 | 1008.5 |
| 20260831204503 | 85 | 0 | 0.0 | 0.0 | 0.00 | 0.00 | 0.00 | 65 | 1008.4 |
| 20260831204003 | 85 | 0 | 0.0 | 0.0 | 0.00 | 0.00 | 0.00 | 65 | 1008.4 |
| 20260831203503 | 85 | 0 | 0.0 | 0.0 | 0.00 | 0.00 | 0.00 | 65 | 1008.4 |
| 20260831203003 | 85 | 45 | 0.0 | 1.0 | 0.00 | 0.00 | 0.00 | 65 | 1008.5 |
| 20260831202503 | 85 | 45 | 2.0 | 2.0 | 0.00 | 0.00 | 0.00 | 65 | 1008.3 |
| 20260831202003 | 85 | 23 | 2.0 | 4.0 | 0.00 | 0.00 | 0.00 | 65 | 1008.3 |
| 20260831201503 | 85 | 334 | 2.0 | 3.0 | 0.00 | 0.00 | 0.00 | 64 | 1008.3 |
| 20260831201003 | 86 | 312 | 1.0 | 3.0 | 0.00 | 0.00 | 0.00 | 64 | 1008.2 |
| 20260831200503 | 86 | 292 | 0.0 | 1.0 | 0.00 | 0.00 | 0.00 | 64 | 1008.2 |
| 20260831200003 | 86 | 292 | 0.0 | 1.0 | 0.00 | 0.00 | 0.00 | 64 | 1008.3 |
| 20260831195503 | 86 | 292 | 1.0 | 2.0 | 0.00 | 0.00 | 0.00 | 64 | 1008.2 |
| 20260831195003 | 86 | 292 | 1.0 | 2.0 | 0.00 | 0.00 | 0.00 | 64 | 1008.1 |
| 20260831194503 | 86 | 292 | 1.0 | 2.0 | 0.00 | 0.00 | 0.00 | 64 | 1008.1 |
| 20260831194003 | 86 | 292 | 1.0 | 2.0 | 0.00 | 0.00 | 0.00 | 65 | 1008.2 |
| 20260831193503 | 86 | 292 | 1.0 | 3.0 | 0.00 | 0.00 | 0.00 | 65 | 1008.2 |
| 20260831193003 | 86 | 288 | 0.0 | 2.0 | 0.00 | 0.00 | 0.00 | 65 | 1008.2 |